| time (UTC) | temp F | wind direction | speed MPH | gust MPH | rain 1hr in | rain 24hr in | rain mn in | humidity % | barometer mb |
| 20260506083115 | 48 | 198 | 0.0 | 3.0 | 0.00 | 0.00 | 0.00 | 67 | 1017.2 |
| 20260506080615 | 48 | 163 | 0.0 | 0.0 | 0.00 | 0.00 | 0.00 | 71 | 1017.2 |
| 20260506080115 | 47 | 198 | 0.0 | 0.0 | 0.00 | 0.00 | 0.00 | 75 | 1017.2 |
| 20260506073115 | 44 | 111 | 0.0 | 0.0 | 0.00 | 0.00 | 0.00 | 77 | 1017.3 |
| 20260506070615 | 42 | 131 | 0.0 | 0.0 | 0.00 | 0.00 | 0.00 | 81 | 1017.4 |
| 20260506070115 | 42 | 131 | 0.0 | 0.0 | 0.00 | 0.00 | 0.00 | 82 | 1017.4 |
| 20260506060615 | 39 | 103 | 0.0 | 0.0 | 0.00 | 0.00 | 0.00 | 81 | 1017.2 |
| 20260506060114 | 39 | 103 | 0.0 | 0.0 | 0.00 | 0.00 | 0.00 | 81 | 1017.2 |
| 20260506050614 | 38 | 103 | 0.0 | 0.0 | 0.00 | 0.00 | 0.00 | 82 | 1017.3 |
| 20260506050114 | 38 | 103 | 0.0 | 0.0 | 0.00 | 0.00 | 0.00 | 82 | 1017.3 |
| 20260506043614 | 37 | 103 | 0.0 | 0.0 | 0.00 | 0.00 | 0.00 | 82 | 1017.2 |
| 20260506043116 | 37 | 103 | 0.0 | 0.0 | 0.00 | 0.00 | 0.00 | 83 | 1017.2 |
| 20260506040615 | 37 | 140 | 0.0 | 0.0 | 0.00 | 0.00 | 0.00 | 83 | 1017.1 |
| 20260506040114 | 37 | 140 | 0.0 | 0.0 | 0.00 | 0.00 | 0.00 | 83 | 1017.1 |
| 20260506033615 | 37 | 140 | 0.0 | 0.0 | 0.00 | 0.00 | 0.00 | 83 | 1017.2 |
| 20260506033114 | 37 | 140 | 0.0 | 0.0 | 0.00 | 0.00 | 0.00 | 83 | 1017.2 |
| 20260506030615 | 37 | 140 | 0.0 | 0.0 | 0.00 | 0.00 | 0.00 | 83 | 1017.3 |
| 20260506030115 | 38 | 140 | 0.0 | 0.0 | 0.00 | 0.00 | 0.00 | 83 | 1017.4 |
| 20260506023614 | 37 | 140 | 0.0 | 0.0 | 0.00 | 0.00 | 0.00 | 83 | 1017.5 |
| 20260506023114 | 37 | 140 | 0.0 | 0.0 | 0.00 | 0.00 | 0.00 | 83 | 1017.5 |
| 20260506020615 | 37 | 140 | 0.0 | 0.0 | 0.00 | 0.00 | 0.00 | 83 | 1017.5 |
| 20260506020114 | 38 | 140 | 0.0 | 0.0 | 0.00 | 0.00 | 0.00 | 83 | 1017.6 |
| 20260506013615 | 38 | 140 | 0.0 | 0.0 | 0.00 | 0.00 | 0.00 | 83 | 1017.6 |
| 20260506013115 | 38 | 140 | 0.0 | 0.0 | 0.00 | 0.00 | 0.00 | 83 | 1017.7 |
| 20260506010615 | 39 | 140 | 0.0 | 0.0 | 0.00 | 0.00 | 0.00 | 81 | 1017.8 |
| 20260506003614 | 39 | 140 | 0.0 | 0.0 | 0.00 | 0.00 | 0.00 | 79 | 1018.0 |
| 20260506003114 | 39 | 185 | 0.0 | 0.0 | 0.00 | 0.00 | 0.00 | 74 | 1018.0 |
| 20260505233615 | 40 | 215 | 0.0 | 0.0 | 0.00 | 0.00 | 0.00 | 76 | 1018.1 |
| 20260505233114 | 40 | 215 | 0.0 | 0.0 | 0.00 | 0.00 | 0.00 | 77 | 1018.1 |
| 20260505230615 | 40 | 215 | 0.0 | 0.0 | 0.00 | 0.00 | 0.00 | 77 | 1018.1 |
| 20260505230114 | 40 | 215 | 0.0 | 0.0 | 0.00 | 0.00 | 0.00 | 78 | 1018.1 |
| 20260505223614 | 41 | 215 | 0.0 | 0.0 | 0.00 | 0.00 | 0.00 | 78 | 1018.1 |
| 20260505223115 | 41 | 215 | 0.0 | 0.0 | 0.00 | 0.00 | 0.00 | 77 | 1018.1 |
| 20260505220614 | 41 | 216 | 0.0 | 0.0 | 0.00 | 0.00 | 0.00 | 77 | 1018.2 |
| 20260505220115 | 41 | 216 | 0.0 | 0.0 | 0.00 | 0.00 | 0.00 | 76 | 1018.2 |
| 20260505213615 | 42 | 216 | 0.0 | 0.0 | 0.00 | 0.00 | 0.00 | 74 | 1018.1 |
| 20260505213115 | 42 | 219 | 0.0 | 0.0 | 0.00 | 0.00 | 0.00 | 74 | 1018.1 |
| 20260505210615 | 43 | 261 | 0.0 | 0.0 | 0.00 | 0.00 | 0.00 | 72 | 1018.1 |
| 20260505210114 | 43 | 233 | 0.0 | 0.0 | 0.00 | 0.00 | 0.00 | 72 | 1018.1 |
| 20260505203614 | 43 | 248 | 0.0 | 0.0 | 0.00 | 0.00 | 0.00 | 70 | 1018.1 |
| 20260505203114 | 43 | 276 | 0.0 | 0.0 | 0.00 | 0.00 | 0.00 | 70 | 1018.1 |
| 20260505200614 | 43 | 266 | 0.0 | 0.0 | 0.00 | 0.00 | 0.00 | 71 | 1018.0 |
| 20260505200115 | 43 | 270 | 0.0 | 0.0 | 0.00 | 0.00 | 0.00 | 70 | 1017.9 |
| 20260505193613 | 44 | 265 | 0.0 | 0.0 | 0.00 | 0.00 | 0.00 | 70 | 1018.0 |
| 20260505193115 | 44 | 256 | 0.0 | 0.0 | 0.00 | 0.00 | 0.00 | 70 | 1017.9 |
| 20260505190614 | 44 | 244 | 0.0 | 0.0 | 0.00 | 0.00 | 0.00 | 70 | 1017.7 |
| 20260505183614 | 44 | 262 | 0.0 | 0.0 | 0.00 | 0.00 | 0.00 | 71 | 1017.6 |
| 20260505183115 | 44 | 248 | 0.0 | 0.0 | 0.00 | 0.00 | 0.00 | 70 | 1017.6 |
| 20260505180615 | 45 | 278 | 0.0 | 0.0 | 0.00 | 0.00 | 0.00 | 70 | 1017.5 |
| 20260505180115 | 45 | 268 | 0.0 | 0.0 | 0.00 | 0.00 | 0.00 | 69 | 1017.5 |
| 20260505173614 | 45 | 258 | 0.0 | 0.0 | 0.00 | 0.00 | 0.00 | 70 | 1017.6 |
| 20260505173115 | 45 | 257 | 0.0 | 9.0 | 0.00 | 0.00 | 0.00 | 72 | 1017.6 |
| 20260505170614 | 45 | 272 | 0.0 | 0.0 | 0.00 | 0.00 | 0.00 | 72 | 1017.5 |
| 20260505170114 | 45 | 275 | 0.0 | 1.0 | 0.00 | 0.00 | 0.00 | 71 | 1017.5 |
| 20260505163613 | 46 | 274 | 0.0 | 0.0 | 0.00 | 0.00 | 0.00 | 71 | 1017.2 |
| 20260505163114 | 46 | 277 | 0.0 | 5.0 | 0.00 | 0.00 | 0.00 | 70 | 1017.2 |
| 20260505160613 | 47 | 263 | 0.0 | 0.0 | 0.00 | 0.00 | 0.00 | 72 | 1017.1 |
| 20260505160114 | 47 | 275 | 0.0 | 7.0 | 0.00 | 0.00 | 0.00 | 71 | 1017.1 |
| 20260505153114 | 47 | 285 | 0.0 | 12.0 | 0.00 | 0.00 | 0.00 | 72 | 1017.0 |
| 20260505150614 | 47 | 267 | 0.0 | 7.0 | 0.00 | 0.00 | 0.00 | 73 | 1017.0 |
| 20260505150113 | 47 | 260 | 1.0 | 5.0 | 0.00 | 0.00 | 0.00 | 75 | 1017.1 |
| 20260505140613 | 46 | 264 | 0.0 | 0.0 | 0.00 | 0.00 | 0.00 | 76 | 1016.8 |
| 20260505140113 | 46 | 260 | 0.0 | 12.0 | 0.00 | 0.00 | 0.00 | 75 | 1016.7 |
| 20260505130113 | 49 | 281 | 0.0 | 10.0 | 0.00 | 0.00 | 0.00 | 74 | 1016.5 |
| 20260505123613 | 50 | 264 | 0.0 | 0.0 | 0.00 | 0.00 | 0.00 | 69 | 1016.3 |
| 20260505123113 | 50 | 250 | 0.0 | 9.0 | 0.00 | 0.00 | 0.00 | 66 | 1016.3 |
| 20260505120613 | 50 | 237 | 1.0 | 8.0 | 0.00 | 0.00 | 0.00 | 70 | 1016.3 |
| 20260505120114 | 50 | 264 | 0.0 | 0.0 | 0.00 | 0.00 | 0.00 | 70 | 1016.3 |
| 20260505113613 | 49 | 243 | 0.0 | 0.0 | 0.00 | 0.00 | 0.00 | 71 | 1016.3 |
| 20260505113114 | 49 | 251 | 0.0 | 5.0 | 0.00 | 0.00 | 0.00 | 72 | 1016.2 |
| 20260505110613 | 48 | 248 | 0.0 | 0.0 | 0.00 | 0.00 | 0.00 | 73 | 1016.2 |
| 20260505110113 | 48 | 248 | 0.0 | 12.0 | 0.00 | 0.00 | 0.00 | 73 | 1016.2 |
| 20260505100113 | 48 | 244 | 0.0 | 16.0 | 0.00 | 0.00 | 0.00 | 71 | 1015.8 |
| 20260505093613 | 51 | 242 | 0.0 | 0.0 | 0.00 | 0.00 | 0.00 | 65 | 1015.4 |
| 20260505093113 | 51 | 237 | 0.0 | 5.0 | 0.00 | 0.00 | 0.00 | 63 | 1015.4 |
| 20260505090613 | 51 | 243 | 0.0 | 0.0 | 0.00 | 0.00 | 0.00 | 60 | 1015.3 |
| 20260505090113 | 51 | 242 | 0.0 | 3.0 | 0.00 | 0.00 | 0.00 | 61 | 1015.2 |